Ely, NV

2:16 AM PDT on July 27, 2017 (GMT -0700)
Ely

Weather History for KELY - August, 2014

Change the Weather History Date:

Wednesday, August 6, 2014

  Actual Average Record
Temperature  
Mean Temperature 65 °F 68 °F  
Max Temperature 83 °F 87 °F 95 °F (1981)
Min Temperature 46 °F 49 °F 32 °F (1950)
Degree Days  
Heating Degree Days 0 0  
Month to date heating degree days 5 0  
Since 1 June heating degree days 145 198  
Since 1 July heating degree days 5 23  
Cooling Degree Days 0 3  
Month to date cooling degree days 12 23  
Year to date cooling degree days 239 158  
Since 1 June cooling degree days 237 157  
Growing Degree Days 14 (Base 50)    
Moisture  
Dew Point 40 °F    
Average Humidity 53    
Maximum Humidity 93    
Minimum Humidity 13    
Precipitation  
Precipitation 0.00 in 0.03 in 1.01 in (1992)
Month to date precipitation 0.79 0.19  
Year to date precipitation 5.57 5.93  
Snow  
Snow 0.00 in 0.00 in 0.00 in (1893)
Month to date snowfall 0.0 0.0  
Since 1 June snowfall T 0.1  
Since 1 July snowfall 0.0 0.0  
Snow Depth 0.00 in    
Sea Level Pressure  
Sea Level Pressure 29.97 in    
Wind  
Wind Speed 8 mph (SSW)    
Max Wind Speed 22 mph    
Max Gust Speed 27 mph    
Visibility 10 miles    
Events      
T = Trace of Precipitation, MM = Missing Value Source: NWS Daily Summary

Daily Weather History Graph

Daily Weather History Graph

Search for Another Location

Airport or City:

Trip Planner

Search our weather history database for the weather conditions in past years. The results will help you decide how hot, cold, wet, or windy it might be!

Date:

Astronomy

Aug. 06, 2014 Rise Set
Actual Time 5:44 AM PDT 7:45 PM PDT
Civil Twilight 5:14 AM PDT 8:15 PM PDT
Nautical Twilight 4:38 AM PDT 8:51 PM PDT
Astronomical Twilight 3:59 AM PDT 9:29 PM PDT
Moon 4:07 PM PDT (8/6) 1:23 AM PDT (8/6)
Length of Visible Light 15h 00m
Length of Day
14h 01m
Waxing Gibbous, 78% of the Moon is Illuminated
Aug 6
Waxing Gibbous
Aug 10
Full
Aug 17
Last Quarter
Aug 25
New
Sep 2
First Quarter

Hourly Weather History & Observations

Time (PDT) Temp. Dew Point Humidity Pressure Visibility Wind Dir Wind Speed Gust Speed Precip Events Conditions
12:53 AM 53.1 °F 48.0 °F 83% 30.01 in 10.0 mi West 4.6 mph - N/A   Clear
1:53 AM 52.0 °F 48.0 °F 86% 30.01 in 10.0 mi SE 5.8 mph - N/A   Partly Cloudy
2:53 AM 48.9 °F 46.0 °F 90% 30.00 in 10.0 mi SSE 9.2 mph - N/A   Clear
3:53 AM 48.0 °F 45.0 °F 89% 30.00 in 10.0 mi South 8.1 mph - N/A   Clear
4:53 AM 48.0 °F 45.0 °F 89% 30.01 in 10.0 mi SE 6.9 mph - N/A   Clear
5:53 AM 46.9 °F 44.1 °F 90% 30.01 in 10.0 mi SSE 10.4 mph - N/A   Clear
6:53 AM 50.0 °F 46.0 °F 86% 30.02 in 10.0 mi SSE 6.9 mph - N/A   Clear
7:53 AM 57.0 °F 48.0 °F 72% 30.01 in 10.0 mi SSE 8.1 mph - N/A   Clear
8:53 AM 64.9 °F 48.9 °F 56% 29.99 in 10.0 mi SSE 3.5 mph - N/A   Clear
10:53 AM 75.9 °F 37.9 °F 25% 29.95 in 10.0 mi Variable 5.8 mph - N/A   Partly Cloudy
11:53 AM 78.8 °F 35.6 °F 21% 30.24 in 10.0 mi WSW 9.2 mph - N/A   Clear
12:53 PM 75.9 °F 34.0 °F 22% 29.96 in 10.0 mi Variable 5.8 mph - N/A   Scattered Clouds
1:53 PM 80.1 °F 33.1 °F 18% 29.94 in 10.0 mi South 9.2 mph - N/A   Partly Cloudy
2:53 PM 79.0 °F 28.9 °F 16% 29.92 in 10.0 mi Calm Calm - N/A   Clear
3:53 PM 81.0 °F 24.1 °F 12% 29.89 in 10.0 mi SSW 13.8 mph 20.7 mph N/A   Clear
4:53 PM 80.1 °F 30.0 °F 16% 29.89 in 10.0 mi WSW 8.1 mph - N/A   Clear
5:53 PM 79.0 °F 34.0 °F 20% 29.89 in 10.0 mi SSW 13.8 mph 20.7 mph N/A   Partly Cloudy
6:53 PM 69.1 °F 43.0 °F 39% 29.94 in 10.0 mi NW 10.4 mph 19.6 mph N/A   Scattered Clouds
7:53 PM 66.0 °F 42.1 °F 42% 29.95 in 10.0 mi WNW 6.9 mph - N/A   Clear
8:53 PM 64.0 °F 42.1 °F 45% 29.94 in 10.0 mi North 15.0 mph - N/A   Clear
9:53 PM 60.1 °F 41.0 °F 49% 29.96 in 10.0 mi North 8.1 mph - N/A   Clear
10:53 PM 57.9 °F 39.9 °F 51% 29.96 in 10.0 mi WNW 6.9 mph - N/A   Clear
11:53 PM 53.1 °F 42.1 °F 66% 29.96 in 10.0 mi South 3.5 mph - N/A   Clear